Regional Weather Roundup
Issued by NWS Sterling, VA

Home | Current Version | Previous Version | Text Only | Print | Product List | Glossary On
Versions: 1 2 3 4 5 6 7 8 9 10 11 12 13 14 15 16 17 18 19 20 21 22 23 24 25 26 27 28 29 30 31 32 33 34 35 36 37 38 39 40 41 42 43 44 45 46 47 48 49 50
000
ASUS41 KLWX 192110
RWRLWX

REGIONAL WEATHER ROUNDUP
NATIONAL WEATHER SERVICE BALTIMORE MD/WASHINGTON DC
400 PM EST SUN NOV 19 2017

Note: "FAIR" indicates few or no clouds below 12,000 feet
with no significant weather and/or obstructions to visibility.
 TC=TEMPERATURE CELSIUS

 * =Non NWS site. Station does not report precipitation (e.g. rain,
    snow, etc.), thunder, or fog.

DCZ001-MDZ009-015-VAZ040>042-051-053>054-192200-
WASHINGTON METRO

CITY           SKY/WX    TMP DP  RH WIND       PRES   REMARKS
WASHINGTON NAT CLOUDY    48  27  44 W15G23    29.81R
DULLES         CLOUDY    45  28  51 W17G24    29.80R
ANDREWS AFB    CLOUDY    46  24  42 NW17G29   29.78R
FT BELVOIR     CLOUDY    49  26  40 NW21G28   29.80R
COLLEGE PARK*  CLOUDY    46  25  42 NW10G18   29.79R
LEESBURG*      CLOUDY    45  32  61 NW18G26   29.82R
MANASSAS*      CLOUDY    47  26  44 W17G29    29.82R
GAITHERSBURG*  CLOUDY    43  26  51 NW9       29.79R

$$

MDZ006>007-011-014-192200-
BALTIMORE METRO

CITY           SKY/WX    TMP DP  RH WIND       PRES   REMARKS
BWI AIRPORT    MOCLDY    46  26  45 W17G32    29.77R
MARTIN STATE   MOCLDY    48  30  49 W21G29    29.77R
FORT MEADE*    MOCLDY    45  27  49 W16G28    29.81R

$$

MDZ012-015-019>023-192200-
MARYLAND EASTERN SHORE

CITY           SKY/WX    TMP DP  RH WIND       PRES   REMARKS
OCEAN CITY     CLEAR     51  32  48 NW17G30   29.71R
SALISBURY      CLEAR     50  30  46 W16G32    29.73R
CAMBRIDGE*     CLEAR     50  27  40 NW21G31   29.76R
EASTON*        PTCLDY    48  27  43 NW17G24   29.80R

$$

MDZ017>025-192200-
SOUTHERN MARYLAND

CITY           SKY/WX    TMP DP  RH WIND       PRES   REMARKS
PATUXENT RIVER PTCLDY    51  30  44 NW18      29.77R
ST INIGOES     NOT AVBL
LEONARDTOWN*   PTCLDY    50  28  43 NW9G21    29.78R

$$

MDZ003>005-192200-
NORTH CENTRAL MARYLAND

CITY           SKY/WX    TMP DP  RH WIND       PRES   REMARKS
FREDERICK*     CLOUDY    46  41  81 W16       29.82R
HAGERSTOWN APT CLOUDY    43  25  49 W17G24    29.78R
WESTMINSTER*   CLOUDY    45  28  53 W15G22    29.75R

$$

MDZ501>502-192200-
WESTERN MARYLAND

CITY           SKY/WX    TMP DP  RH WIND       PRES   REMARKS
OAKLAND*       CLOUDY    28  28 100 W13G21    29.73R WCI  18
CUMBERLAND*    MOCLDY    43  28  56 W6        29.86R

$$

VAZ025>031-192200-
SHENANDOAH VALLEY

CITY           SKY/WX    TMP DP  RH WIND       PRES   REMARKS
WINCHESTER*    PTCLDY    41  27  56 W12       29.81R
FRONT ROYAL*   CLOUDY    43  23  45 MISG      29.81R
LURAY*         CLOUDY    45  27  49 W8        29.83R
NEW MARKET*    CLOUDY    42  23  46 W5        29.83R
STAUNTON*      CLOUDY    43  24  47 W7G17     29.85R
WAYNESBORO*    CLOUDY    43  24  47 W8G18     29.83R

$$

WVZ021-048>050-054>055-192200-
EASTERN WEST VIRGINIA PANHANDLE

CITY           SKY/WX    TMP DP  RH WIND       PRES   REMARKS
MARTINSBURG    CLOUDY    43  24  47 W15G28    29.81R
PETERSBURG*    CLOUDY    41  26  56 W14G21    29.84R

$$

VAZ036>039-050-192200-
CENTRAL FOOTHILLS

CITY           SKY/WX    TMP DP  RH WIND       PRES   REMARKS
CHARLOTTESVILL MOCLDY    49  24  37 NW9G21    29.83R
CULPEPER*      CLOUDY    48  22  36 NW13G23   29.84R
ORANGE*        CLOUDY    46  27  46 NW8       29.83R
GORDONSVILLE*  CLOUDY    49  26  41 NW10      29.82R
WARRENTON*     NOT AVBL

$$

VAZ055>057-192200-
NORTH AND CENTRAL PIEDMONT

CITY           SKY/WX    TMP DP  RH WIND       PRES   REMARKS
FREDERICKSBRG* PTCLDY    52  29  41 NW14G23   29.80R
STAFFORD*      MOCLDY    48  26  42 NW15G22   29.85R

$$

NCZ024-NYZ072-PAZ021-071-VAZ022-071-192200-
OTHER REGIONAL OBSERVATIONS

CITY           SKY/WX    TMP DP  RH WIND       PRES   REMARKS
NEW YORK CITY  CLEAR     46  26  45 NW15G28   29.62
PHILADELPHIA   MOCLDY    50  26  39 W17G28    29.68R
PITTSBURGH     LGT SNOW  36  30  79 NW16      29.84R WCI  26
ROANOKE        CLOUDY    42  25  50 NW21G31   29.93R
RICHMOND       PTCLDY    63  27  25 NW13      29.78R
RALEIGH        MOSUNNY   57  29  34 W12       29.85R

$$

ANZ530>537-192200-
MARINE OBSERVATIONS

STATION/POSITION TIME  TEMP    WIND        PRES
                       AIR SEA DIR/SP/G
                 (UTC) (F)     (DEG/KT/KT) (MB)
THOMAS PT LIGHT  2100   47 54  310/ 26/ 30   N/A
BALT KEY BRIDGE  2042   47     280/ 25/ 29 1007.3R
COVE POINT       2042   50     330/ 18/ 28 1008.4R
LEWISETTA        2042   52 54  350/ 13/ 19 1007.8R
SOLOMONS ISLAND  2042   51 55  320/ 13/ 18 1007.5R
PINEY POINT      2042          340/ 24/ 26   N/A

$$




USA.gov is the U.S. government's official web portal to all federal, state and local government web resources and services.